This demonstration page uses our WeatherBlox Daily Observations layout. Learn more.

Left ArrowRight Arrow

39.51506, -84.39828

Hourly Observations for October 20, 2015

Temp ( °F °C ) Dew Point ( °F °C ) Humidity (%) Winds ( mph kmh ) Pressure ( in mb ) Visibility ( mi km ) Precip ( " mm )
12:15 am 00:15 Clear 47 8.2 36 2.2 66 66 WSW 5 7 30.27 1025 10 16 N/A
12:35 am 00:35 Clear 47 8.1 36 2.4 68 68 SW 3 6 30.27 1025 10 16 N/A
12:55 am 00:55 Clear 47 8.1 37 2.7 69 69 SW 3 6 30.27 1025 10 16 N/A
1:15 am 01:15 Clear 45 7.2 35 1.8 69 69 SW 3 6 30.27 1025 10 16 N/A
1:35 am 01:35 Clear 44 6.8 36 2.1 72 72 WSW 3 6 30.27 1025 10 16 N/A
1:55 am 01:55 Clear 44 6.4 35 1.7 72 72 WSW 3 6 30.30 1026 10 16 N/A
2:15 am 02:15 Clear 42 5.5 35 1.5 76 76 WSW 3 6 30.30 1026 10 16 N/A
2:35 am 02:35 Clear 42 5.4 35 1.7 77 77 WSW 3 6 30.30 1026 10 16 N/A
2:55 am 02:55 Clear 40 4.7 35 1.4 79 79 SW 5 7 30.30 1026 10 16 N/A
3:15 am 03:15 Clear 41 4.8 35 1.7 81 81 SW 6 9 30.30 1026 10 16 N/A
3:35 am 03:35 Clear 43 6.1 36 2.4 77 77 SW 6 9 30.30 1026 10 16 N/A
3:55 am 03:55 Clear 43 6 36 2.2 77 77 WSW 5 7 30.30 1026 10 16 N/A
4:15 am 04:15 Clear 42 5.8 36 2.1 77 77 SW 3 6 30.30 1026 10 16 N/A
4:35 am 04:35 Clear 42 5.3 36 2.3 81 81 SW 6 9 30.30 1026 10 16 N/A
4:55 am 04:55 Clear 42 5.5 36 2.3 80 80 SW 6 9 30.30 1026 10 16 N/A
5:15 am 05:15 Clear 43 5.9 37 2.6 80 80 SW 5 7 30.30 1026 10 16 N/A
5:35 am 05:35 Clear 42 5.5 36 2.3 80 80 SW 6 9 30.30 1026 10 16 N/A
5:55 am 05:55 Clear 43 6 36 2.4 78 78 SW 7 11 30.30 1026 10 16 N/A
6:15 am 06:15 Clear 42 5.6 36 2.3 80 80 WSW 5 7 30.33 1027 10 16 N/A
6:35 am 06:35 Clear 44 6.4 37 3 79 79 WSW 3 6 30.33 1027 10 16 N/A
6:55 am 06:55 Clear 43 5.9 37 2.8 81 81 WSW 5 7 30.33 1027 10 16 N/A
7:15 am 07:15 Clear 43 6.1 38 3.4 83 83 W 3 6 30.33 1027 10 16 N/A
7:35 am 07:35 Clear 43 6 38 3.1 82 82 W 3 6 30.33 1027 10 16 N/A
7:55 am 07:55 Sunny 40 4.7 36 2.3 85 85 N N/A 30.33 1027 10 16 N/A
8:15 am 08:15 Sunny 40 4.5 36 2.2 85 85 N N/A 30.33 1027 10 16 N/A
8:35 am 08:35 Sunny 42 5.5 37 3 84 84 N N/A 30.36 1028 10 16 N/A
8:55 am 08:55 Sunny 46 7.6 41 5.1 84 84 SW 3 6 30.33 1027 10 16 N/A
9:15 am 09:15 Sunny 50 9.9 41 5.1 72 72 N N/A 30.33 1027 10 16 N/A
9:35 am 09:35 Sunny 55 12.5 42 5.4 62 62 SW 6 9 30.33 1027 10 16 N/A
9:55 am 09:55 Sunny 56 13.2 41 4.8 57 57 SW 8 13 30.33 1027 10 16 N/A
10:15 am 10:15 Sunny 57 13.8 39 4 52 52 SW 14 22 30.33 1027 10 16 N/A
10:35 am 10:35 Sunny 60 15.3 40 4.7 49 49 SSW 13 20 30.33 1027 10 16 N/A
10:55 am 10:55 Sunny 60 15.7 39 3.7 45 45 SSW 12 19 30.33 1027 10 16 N/A
11:15 am 11:15 Sunny 62 16.5 38 3.6 42 42 SW 12 19 30.33 1027 10 16 N/A
11:35 am 11:35 Sunny 63 17 38 3.1 40 40 SW 12 19 30.33 1027 10 16 N/A
11:55 am 11:55 Sunny 64 17.9 38 3.1 37 37 SW 10 17 30.33 1027 10 16 N/A
12:15 pm 12:15 Sunny 66 18.8 37 3 35 35 SW 13 20 30.27 1025 10 16 N/A
12:35 pm 12:35 Sunny 67 19.5 37 2.7 33 33 SW 14 22 30.27 1025 10 16 N/A
12:55 pm 12:55 Sunny 69 20.8 37 3 31 31 SSW 12 19 30.27 1025 10 16 N/A
1:15 pm 13:15 Sunny 69 20.8 36 2.3 30 30 SSW 12 19 30.27 1025 10 16 N/A
1:35 pm 13:35 Sunny 69 20.8 35 1.8 28 28 SSW 9 15 30.27 1025 10 16 N/A
1:55 pm 13:55 Sunny 69 20.8 34 0.9 27 27 SSW 10 17 30.24 1024 10 16 N/A
2:15 pm 14:15 Sunny 69 20.8 33 0.4 26 26 SSW 9 15 30.24 1024 10 16 N/A
2:35 pm 14:35 Sunny 72 22.3 33 0.3 23 23 SSW 12 19 30.24 1024 10 16 N/A
2:55 pm 14:55 Sunny 74 23.6 33 0.4 22 22 SSW 12 19 30.24 1024 10 16 N/A
3:15 pm 15:15 Sunny 74 23.6 32 0.1 21 21 SSW 8 13 30.21 1023 10 16 N/A
3:35 pm 15:35 Sunny 74 23.6 30 -1.1 19 19 SSW 12 19 30.21 1023 10 16 N/A
3:55 pm 15:55 Sunny 74 23.6 29 -1.6 19 19 SW 10 17 30.21 1023 10 16 N/A
4:15 pm 16:15 Sunny 74 23.6 28 -2.4 18 18 SW 12 19 30.21 1023 10 16 N/A
4:35 pm 16:35 Sunny 74 23.6 27 -2.8 17 17 SSW 13 20 30.21 1023 10 16 N/A
4:55 pm 16:55 Sunny 74 23.6 30 -1.3 19 19 SSW 12 19 30.21 1023 10 16 N/A
5:15 pm 17:15 Sunny 74 23.6 29 -1.9 18 18 SSW 9 15 30.21 1023 10 16 N/A
5:35 pm 17:35 Sunny 74 23.6 30 -0.9 20 20 SW 12 19 30.21 1023 10 16 N/A
5:55 pm 17:55 Sunny 72 22.3 29 -1.5 20 20 S 10 17 30.21 1023 10 16 N/A
6:15 pm 18:15 Sunny 69 20.8 28 -2 22 22 S 10 17 30.21 1023 10 16 N/A
6:35 pm 18:35 Sunny 69 20.8 31 -0.5 24 24 S 9 15 30.21 1023 10 16 N/A
6:55 pm 18:55 Clear 69 20.5 32 0.2 26 26 SSW 8 13 30.21 1023 10 16 N/A
7:15 pm 19:15 Clear 66 18.8 32 -0.2 28 28 SSW 8 13 30.21 1023 10 16 N/A
7:35 pm 19:35 Clear 62 16.6 33 0.3 33 33 SSW 3 6 30.24 1024 10 16 N/A
7:55 pm 19:55 Clear 58 14.7 37 2.9 45 45 WSW 3 6 30.24 1024 10 16 N/A
8:15 pm 20:15 Clear 57 13.8 39 3.9 52 52 W 3 6 30.24 1024 10 16 N/A
8:35 pm 20:35 Clear 55 12.5 40 4.4 58 58 SW 3 6 30.24 1024 10 16 N/A
8:55 pm 20:55 Clear 55 12.5 40 4.6 59 59 N N/A 30.24 1024 10 16 N/A
9:15 pm 21:15 Clear 51 10.8 40 4.6 66 66 N N/A 30.24 1024 10 16 N/A
9:35 pm 21:35 Clear 54 12.4 43 6.2 66 66 WSW 3 6 30.24 1024 10 16 N/A
9:55 pm 21:55 Clear 49 9.6 40 4.3 70 70 WSW 3 6 30.24 1024 10 16 N/A
10:15 pm 22:15 Clear 49 9.6 40 4.3 70 70 N N/A 30.24 1024 10 16 N/A
10:35 pm 22:35 Clear 50 10 41 4.8 70 70 N N/A 30.24 1024 10 16 N/A
10:55 pm 22:55 Clear 49 9.6 41 5.2 74 74 N N/A 30.24 1024 10 16 N/A
11:15 pm 23:15 Clear 49 9.6 42 5.7 77 77 N N/A 30.27 1025 10 16 N/A
11:35 pm 23:35 Clear 49 9.6 42 5.7 77 77 N N/A 30.27 1025 10 16 N/A
11:55 pm 23:55 Clear 49 9.6 43 6.2 80 80 N N/A 30.27 1025 10 16 N/A

Powered by AerisWeather